Погода в Пуэрто Хименес

Коста-Рика     8°31′59″N   83°18′06″W
В апреле 2022 года жителям России запретили посещать сайт meteo.paraplan.net по решению Генеральной прокуратуры. Аудитория сайта уменьшилась в 10 раз. Владельцы сайта не видят смысла в поддержке погодного сервера в таких условиях. Сайт будет закрыт в октябре.
темп.,
°C
ветер,
м/с
пор.,
м/с
влажн.,
%
обл.,
%
осадки,
мм/ч
давл.,
гПа
погр.,
м
30 сентября, пт
пт3000:00+24сз1292100 3.0 101090
03:00+24сз2294100 0.5 1009120
06:00+24сз229375 0.6 1010141
09:00+27з1282100 0.6 1011545
12:00+27юз348283 4.9 1009586
15:00+26зюз3586100 5.9 1007478
18:00+24зсз2291100 11.7 1009117
21:00+24ссз2294100 4.8 1011132
1 октября, сб
сб100:00+23з1193100 5.6 1010119
03:00+24зсз1192100 1.2 1009143
06:00+24сз1192100 3.3 101070
09:00+25зсз1187100 1.2 1012340
12:00+25юз2386100 6.8 1011424
15:00+24зюз3492100 5.8 1010283
18:00+23сз1296100 15.8 101295
21:00+23ссз1195100 1.5 1013118
2 октября, вс
вс200:00+23ссз1194100 1.5 1012134
03:00+23ссв1193100 0.0 1011108
06:00+23ссз0193100 0.0 101291
09:00+26ссв018079 0.0 1014484
12:00+27юз3276100 0.3 1012586
15:00+27юз2377100 0.8 1010685
18:00+25сз1286100 3.1 1012142
21:00+24ссз229199 0.1 1014107
3 октября, пн
пн300:00+24сз2392100 0.1 1013128
03:00+24ссз229295 0.0 1011120
06:00+24ссз129235 0.0 1013107
09:00+27ю008239 1.8 1014313
12:00+28ююз337715 3.3 1012734
15:00+26юз3584100 2.8 1010413
18:00+25зсз2488100 4.6 1011227
21:00+24сз229248 0.0 1013115
4 октября, вт
вт400:00+24ссз1193100 0.0 101279
03:00+24с119369 0.0 101083
06:00+24с119299 0.0 101170
09:00+27в118150 1.3 1013237
12:00+28ююз337480 1.8 1011734
15:00+28ююз3374100 1.6 1009698
18:00+25юз1287100 5.7 1010117
21:00+25сз118796 1.1 101282